Nome, AK

8:54 PM AKDT on August 25, 2016 (GMT -0800)
Nome

Weather History for PAOM - September, 2012

Change the Weather History Date:

Friday, September 7, 2012

  Actual Average Record
Temperature  
Mean Temperature 42 °F 46 °F  
Max Temperature 49 °F 52 °F 66 °F (1997)
Min Temperature 35 °F 40 °F 25 °F (1987)
Degree Days  
Heating Degree Days 23 19  
Month to date heating degree days 142 125  
Since 1 July heating degree days 1047 989  
Cooling Degree Days 0    
Month to date cooling degree days 0  
Year to date cooling degree days 0  
Moisture  
Dew Point 37 °F    
Average Humidity 0    
Maximum Humidity 0    
Minimum Humidity 0    
Precipitation  
Precipitation T in 0.09 in 0.94 in (1946)
Month to date precipitation 1.31 0.64  
Year to date precipitation 15.99 11.09  
Snow  
Snow 0.00 in 0.00 in 0.20 in (1987)
Month to date snowfall 0.0 0.0  
Since 1 July snowfall 0.0 0.0  
Since 1 September snowfall 0.0 0.0  
Snow Depth 0.00 in    
Sea Level Pressure  
Sea Level Pressure 29.92 in    
Wind  
Wind Speed 6 mph (NW)    
Max Wind Speed 16 mph    
Max Gust Speed 18 mph    
Visibility 10 miles    
Events      
T = Trace of Precipitation, MM = Missing Value Source: NWS Daily Summary

Daily Weather History Graph

Daily Weather History Graph

Search for Another Location

Airport or City:

Trip Planner

Search our weather history database for the weather conditions in past years. The results will help you decide how hot, cold, wet, or windy it might be!

Date:

Astronomy

Sep. 07, 2012 Rise Set
Actual Time 8:02 AM AKDT 9:54 PM AKDT
Civil Twilight 7:11 AM AKDT 10:45 PM AKDT
Nautical Twilight 6:02 AM AKDT 11:53 PM AKDT
Astronomical Twilight 4:22 AM AKDT 1:28 AM AKDT
Moon 11:04 PM AKDT (9/7) 6:01 PM AKDT (9/7)
Length of Visible Light 15h 34m
Length of Day
13h 51m
Waning Gibbous, 57% of the Moon is Illuminated
Sep 7
Waning Gibbous
Sep 8
Last Quarter
Sep 15
New
Sep 22
First Quarter
Sep 29
Full

Hourly Weather History & Observations

Time (AKDT) Temp. Windchill Dew Point Humidity Pressure Visibility Wind Dir Wind Speed Gust Speed Precip Events Conditions
12:53 AM 37.9 °F - 36.0 °F 93% 29.86 in 10.0 mi Calm Calm - 0.02 in   Overcast
1:00 AM 39.2 °F - 35.6 °F 87% 29.87 in 10.0 mi Calm Calm - N/A   Overcast
1:53 AM 37.9 °F 34.4 °F 37.0 °F 97% 29.87 in 10.0 mi North 4.6 mph - 0.00 in   Overcast
2:53 AM 37.0 °F 33.3 °F 37.0 °F 100% 29.87 in 10.0 mi NNW 4.6 mph - 0.00 in   Overcast
3:01 AM 37.4 °F 34.9 °F 37.4 °F 100% 29.87 in 10.0 mi NNW 3.5 mph - N/A   Overcast
3:15 AM 37.4 °F - 37.4 °F 100% 29.88 in 10.0 mi Calm Calm - N/A   Overcast
3:53 AM 37.0 °F 31.6 °F 36.0 °F 96% 29.88 in 10.0 mi North 6.9 mph - N/A   Overcast
4:53 AM 36.0 °F 33.3 °F 35.1 °F 97% 29.89 in 10.0 mi NNE 3.5 mph - N/A   Overcast
5:53 AM 36.0 °F - 35.1 °F 97% 29.90 in 10.0 mi Calm Calm - N/A   Overcast
6:53 AM 36.0 °F - 35.1 °F 97% 29.89 in 10.0 mi Calm Calm - 0.00 in   Overcast
7:53 AM 35.1 °F 32.2 °F 34.0 °F 96% 29.90 in 10.0 mi North 3.5 mph - N/A   Mostly Cloudy
8:53 AM 35.1 °F 32.2 °F 35.1 °F 100% 29.89 in 10.0 mi NNW 3.5 mph - N/A   Overcast
9:53 AM 39.0 °F - 36.0 °F 89% 29.92 in 10.0 mi Calm Calm - N/A   Mostly Cloudy
10:53 AM 41.0 °F 38.0 °F 36.0 °F 82% 29.92 in 10.0 mi NW 4.6 mph - N/A   Mostly Cloudy
11:53 AM 43.0 °F - 35.1 °F 74% 29.93 in 10.0 mi Calm Calm - N/A   Scattered Clouds
12:53 PM 44.1 °F 42.5 °F 33.1 °F 65% 29.94 in 10.0 mi NW 3.5 mph - N/A   Scattered Clouds
1:53 PM 46.0 °F 43.1 °F 35.1 °F 66% 29.94 in 10.0 mi Variable 5.8 mph - N/A   Scattered Clouds
2:53 PM 45.0 °F 39.3 °F 37.9 °F 76% 29.94 in 10.0 mi WSW 11.5 mph - N/A   Scattered Clouds
3:53 PM 46.0 °F 40.2 °F 37.0 °F 71% 29.94 in 10.0 mi West 12.7 mph - N/A   Partly Cloudy
4:53 PM 46.9 °F - 37.9 °F 71% 29.92 in 10.0 mi West 13.8 mph - N/A   Scattered Clouds
5:53 PM 48.0 °F - 39.0 °F 71% 29.94 in 10.0 mi West 15.0 mph - N/A   Scattered Clouds
6:53 PM 48.0 °F - 39.0 °F 71% 29.94 in 10.0 mi West 13.8 mph - N/A   Scattered Clouds
7:53 PM 48.0 °F - 37.9 °F 68% 29.94 in 10.0 mi West 12.7 mph - N/A   Mostly Cloudy
8:53 PM 46.0 °F 44.8 °F 37.9 °F 73% 29.94 in 10.0 mi NE 3.5 mph - N/A   Mostly Cloudy
9:53 PM 45.0 °F 42.6 °F 39.9 °F 82% 29.96 in 10.0 mi ENE 4.6 mph - N/A   Mostly Cloudy
10:53 PM 45.0 °F 43.5 °F 39.9 °F 82% 29.96 in 10.0 mi North 3.5 mph - N/A   Overcast
11:53 PM 45.0 °F 43.5 °F 39.9 °F 82% 29.98 in 10.0 mi North 3.5 mph - N/A   Overcast